カタログに戻る

STARLINK-35305

運用中通信VLEO
NORAD 66561·PAYLOAD·🇺🇸 United States

打ち上げ Nov 21, 2025 から Cape Canaveral Space Force Station

Loading…

次のパス (今後24時間)

TLE

最新Source: CelesTrak SupGP

元期: Sep 14, 2026, 22:40 UTC

1 66561C 25268E   26257.94493056 -.00012884  00000+0 -46691-3 0  2579
2 66561  43.0039 358.2010 0001444 275.8871 113.7764 15.27567724    11

AllMySatでSTARLINK-35305をリアルタイム追跡

Download on the App Store